TimeEDT,TemperatureF,Dew PointF,Humidity,Sea Level PressureIn,VisibilityMPH,Wind Direction,Wind SpeedMPH,Gust SpeedMPH,PrecipitationIn,Events,Conditions,WindDirDegrees,DateUTC
12:58 AM,73.8,66.6,78,29.78,10.0,South,10.4,-,N/A,,Scattered Clouds,180,2014-06-08 04:58:00
1:58 AM,73.0,65.3,77,29.77,10.0,South,11.5,-,N/A,,Overcast,190,2014-06-08 05:58:00
2:58 AM,71.6,64.9,79,29.77,10.0,SSW,12.7,-,N/A,,Mostly Cloudy,210,2014-06-08 06:58:00
3:03 AM,71.6,64.4,78,29.78,10.0,SSW,12.7,-,N/A,,Mostly Cloudy,210,2014-06-08 07:03:00
3:28 AM,71.6,64.4,78,29.78,10.0,SSW,11.5,-,N/A,,Overcast,210,2014-06-08 07:28:00
3:58 AM,70.7,65.3,83,29.77,10.0,SW,10.4,-,N/A,,Overcast,220,2014-06-08 07:58:00
4:38 AM,69.8,66.2,88,29.78,10.0,SSW,12.7,21.9,N/A,,Overcast,210,2014-06-08 08:38:00
4:58 AM,69.6,65.8,88,29.76,10.0,SSW,13.8,-,N/A,,Overcast,210,2014-06-08 08:58:00
5:13 AM,69.8,66.2,88,29.77,10.0,SW,12.7,-,N/A,,Overcast,220,2014-06-08 09:13:00
5:28 AM,68.0,66.2,94,29.77,10.0,SW,12.7,-,N/A,,Mostly Cloudy,220,2014-06-08 09:28:00
5:58 AM,68.9,66.2,91,29.77,10.0,SW,10.4,-,N/A,,Overcast,220,2014-06-08 09:58:00
6:58 AM,68.7,65.7,90,29.77,10.0,SSW,13.8,19.6,N/A,,Overcast,210,2014-06-08 10:58:00
7:18 AM,69.8,66.2,88,29.79,10.0,SW,13.8,19.6,N/A,,Overcast,220,2014-06-08 11:18:00
7:43 AM,69.8,64.4,83,29.79,10.0,SSW,12.7,20.7,N/A,,Overcast,200,2014-06-08 11:43:00
7:58 AM,69.1,65.1,87,29.79,10.0,SSW,12.7,-,N/A,,Overcast,210,2014-06-08 11:58:00
8:58 AM,69.1,64.4,85,29.80,10.0,SW,12.7,19.6,N/A,,Overcast,230,2014-06-08 12:58:00
9:38 AM,68.0,60.8,78,29.83,10.0,WSW,15.0,25.3,N/A,,Overcast,250,2014-06-08 13:38:00
9:43 AM,68.0,60.8,78,29.83,10.0,West,15.0,21.9,N/A,,Overcast,260,2014-06-08 13:43:00
9:58 AM,67.8,61.3,80,29.83,10.0,West,15.0,23.0,N/A,,Overcast,260,2014-06-08 13:58:00
10:03 AM,68.0,60.8,78,29.84,10.0,West,15.0,23.0,N/A,,Overcast,260,2014-06-08 14:03:00
10:38 AM,64.4,60.8,88,29.87,10.0,West,13.8,23.0,N/A,,Overcast,260,2014-06-08 14:38:00
10:58 AM,64.8,61.0,88,29.87,10.0,West,10.4,19.6,N/A,,Overcast,260,2014-06-08 14:58:00
11:58 AM,64.9,60.6,86,29.89,10.0,West,11.5,-,N/A,,Overcast,270,2014-06-08 15:58:00
12:13 PM,64.4,60.8,88,29.90,10.0,West,10.4,-,N/A,,Overcast,270,2014-06-08 16:13:00
12:58 PM,66.0,60.6,83,29.91,10.0,West,11.5,-,N/A,,Overcast,260,2014-06-08 16:58:00
1:38 PM,66.2,60.8,83,29.94,10.0,West,12.7,-,N/A,,Overcast,270,2014-06-08 17:38:00
1:58 PM,67.6,61.5,81,29.94,10.0,West,11.5,-,N/A,,Overcast,270,2014-06-08 17:58:00
2:53 PM,69.8,62.6,78,29.95,10.0,West,10.4,-,N/A,,Mostly Cloudy,270,2014-06-08 18:53:00
2:58 PM,70.0,61.7,75,29.94,10.0,West,8.1,-,N/A,,Mostly Cloudy,270,2014-06-08 18:58:00
3:58 PM,73.2,62.6,69,29.94,10.0,NW,9.2,-,N/A,,Scattered Clouds,310,2014-06-08 19:58:00
4:58 PM,73.0,62.8,70,29.93,10.0,West,5.8,-,N/A,,Mostly Cloudy,270,2014-06-08 20:58:00
5:58 PM,73.9,62.6,68,29.93,10.0,West,4.6,-,N/A,,Mostly Cloudy,280,2014-06-08 21:58:00
6:58 PM,73.0,62.6,70,29.94,10.0,West,4.6,-,N/A,,Scattered Clouds,270,2014-06-08 22:58:00
7:58 PM,72.5,63.3,73,29.94,10.0,NW,1.2,-,N/A,,Mostly Cloudy,310,2014-06-08 23:58:00
8:58 PM,68.2,64.6,88,29.95,10.0,NNW,2.3,-,N/A,,Overcast,330,2014-06-09 00:58:00
9:58 PM,64.2,62.4,94,29.96,10.0,North,1.2,-,N/A,,Partly Cloudy,360,2014-06-09 01:58:00
10:45 PM,64.4,62.6,94,29.97,10.0,ENE,3.5,-,N/A,Rain,Light Rain,70,2014-06-09 02:45:00
10:58 PM,65.7,63.5,93,29.97,10.0,SSE,2.3,-,0.00,,Light Drizzle,150,2014-06-09 02:58:00
11:00 PM,66.2,62.6,88,29.97,10.0,SSW,2.3,-,N/A,,Light Drizzle,200,2014-06-09 03:00:00
11:05 PM,64.4,62.6,94,29.97,10.0,Calm,Calm,-,N/A,,Overcast,0,2014-06-09 03:05:00
11:58 PM,66.9,63.1,88,29.96,10.0,Variable,1.2,-,0.00,,Overcast,0,2014-06-09 03:58:00